Location: Góry Miechowskie
(50.3599°N, 20.1803°E)
Time: 13:05:17
(UTC+00:00)

Cosmos 2082 - Pass Details

Date: 15 June 2024
Orbit: 834 x 853 km, 71.0° (Epoch: 16 July)

Event Time Altitude Azimuth Distance (km) Brightness Sun altitude
Exits shadow 00:03:40 20° 193° (SSW) 1,826 4.8 -14.0°
Maximum altitude 00:07:33 69° 115° (ESE) 895 3.8 -13.8°
Drops below altitude 10° 00:13:08 10° 33° (NNE) 2,455 7.5 -13.5°
Sets 00:15:36 0° 31° (NNE) 3,393 8.7 -13.3°
